DW5656 Weather Reports


Display with metric or nautical units.
time (UTC)temp
F
wind
direction
speed
MPH
gust
MPH
rain 1hr
in
rain 24hr
in
rain mn
in
humidity
%
barometer
mb
20180422143228 74 302 4.0 8.0 0.00 0.03 0.02 60 1010.2
20180422142328 74 279 4.0 10.0 0.00 0.03 0.02 61 1010.3
20180422141428 73 313 4.0 10.0 0.00 0.03 0.02 62 1010.4
20180422140528 73 312 4.0 9.0 0.00 0.03 0.02 61 1010.5
20180422135628 73 304 5.0 10.0 0.00 0.03 0.02 61 1010.6
20180422134728 73 291 4.0 10.0 0.00 0.04 0.02 61 1010.7
20180422133828 74 284 3.0 10.0 0.00 0.04 0.02 60 1010.7
20180422132928 74 273 4.0 8.0 0.00 0.04 0.02 62 1010.8
20180422132028 73 241 3.0 10.0 0.00 0.04 0.02 62 1010.9
20180422131128 73 301 3.0 8.0 0.00 0.04 0.02 63 1011.1
20180422130228 72 250 4.0 9.0 0.00 0.04 0.02 65 1011.1
20180422125328 72 264 4.0 10.0 0.00 0.04 0.02 64 1011.1
20180422124428 73 240 3.0 10.0 0.00 0.04 0.02 64 1011.0
20180422123528 73 277 3.0 9.0 0.00 0.04 0.02 63 1011.1
20180422122628 73 268 3.0 9.0 0.00 0.04 0.02 63 1011.1
20180422121728 72 230 4.0 8.0 0.00 0.04 0.02 64 1011.1
20180422120828 72 237 3.0 8.0 0.00 0.04 0.02 63 1011.2
20180422115928 72 232 2.0 6.0 0.00 0.04 0.02 63 1011.2
20180422115028 72 248 2.0 8.0 0.00 0.04 0.02 62 1011.3
20180422114128 72 290 3.0 7.0 0.00 0.04 0.02 62 1011.4
20180422113228 72 224 3.0 8.0 0.00 0.04 0.02 64 1011.4
20180422112328 72 195 3.0 7.0 0.00 0.04 0.02 63 1011.4
20180422111428 71 216 2.0 7.0 0.00 0.04 0.02 65 1011.5
20180422110528 71 187 1.0 7.0 0.00 0.04 0.02 66 1011.5
20180422105628 70 268 2.0 6.0 0.00 0.04 0.02 67 1011.6
20180422104728 70 268 1.0 6.0 0.00 0.04 0.02 67 1011.7
20180422103828 70 326 2.0 3.0 0.00 0.04 0.02 68 1011.7
20180422102928 69 262 2.0 4.0 0.00 0.04 0.02 68 1011.7
20180422102028 69 251 1.0 6.0 0.01 0.04 0.02 68 1011.7
20180422101128 70 187 1.0 4.0 0.01 0.04 0.02 68 1011.7
20180422100228 70 170 2.0 5.0 0.01 0.04 0.02 69 1011.7
20180422095328 69 250 1.0 6.0 0.01 0.04 0.02 70 1011.6
20180422094428 70 4 1.0 4.0 0.01 0.04 0.02 69 1011.8
20180422093528 68 313 2.0 5.0 0.01 0.04 0.02 73 1011.7
20180422092628 68 246 2.0 5.0 0.01 0.04 0.02 73 1011.7
20180422091728 68 216 1.0 5.0 0.00 0.03 0.01 75 1011.7
20180422090828 67 260 2.0 3.0 0.00 0.03 0.01 78 1011.8
20180422085928 66 234 1.0 4.0 0.00 0.03 0.01 78 1011.8
20180422085028 65 250 2.0 4.0 0.00 0.03 0.01 80 1011.7
20180422084128 64 240 2.0 4.0 0.00 0.03 0.01 82 1011.5
20180422083229 64 237 2.0 3.0 0.00 0.03 0.01 83 1011.4
20180422082328 63 243 2.0 4.0 0.00 0.03 0.01 85 1011.5
20180422081428 62 232 1.0 5.0 0.00 0.03 0.01 88 1011.7
20180422080528 62 234 0.0 4.0 0.00 0.03 0.01 90 1011.6
20180422075628 62 234 0.0 2.0 0.00 0.03 0.01 92 1011.5
20180422074728 61 237 1.0 3.0 0.00 0.03 0.01 92 1011.5
20180422073828 60 242 1.0 2.0 0.00 0.03 0.01 92 1011.8
20180422072928 60 242 1.0 2.0 0.00 0.03 0.01 92 1011.7
20180422072028 60 231 3.0 4.0 0.00 0.03 0.01 92 1011.6
20180422071128 60 215 4.0 8.0 0.00 0.03 0.01 91 1012.0
20180422070228 60 229 2.0 8.0 0.00 0.03 0.01 91 1012.0
20180422065328 60 104 1.0 4.0 0.00 0.03 0.01 91 1011.2
20180422064428 60 190 1.0 4.0 0.00 0.03 0.01 91 1011.4
20180422063528 60 196 2.0 4.0 0.00 0.03 0.01 90 1011.6
20180422062628 60 206 2.0 5.0 0.00 0.03 0.01 89 1011.7
20180422061728 61 204 2.0 5.0 0.00 0.03 0.01 88 1011.6
20180422060828 62 219 2.0 5.0 0.00 0.03 0.01 86 1011.3
20180422055928 62 294 1.0 4.0 0.00 0.03 0.01 83 1011.1
20180422055028 62 355 0.0 1.0 0.00 0.03 0.01 82 1010.9
20180422054128 62 355 2.0 3.0 0.00 0.03 0.01 82 1010.7
20180422053228 62 330 2.0 4.0 0.00 0.03 0.01 83 1010.6
20180422052328 62 315 3.0 4.0 0.00 0.03 0.01 82 1010.7
20180422051428 62 336 2.0 5.0 0.00 0.03 0.01 82 1010.7
20180422050528 62 345 2.0 4.0 0.00 0.03 0.01 82 1010.8
20180422045628 62 359 1.0 4.0 0.00 0.03 0.01 83 1010.8
20180422044728 62 218 0.0 2.0 0.00 0.03 0.01 88 1011.0
20180422043828 62 218 0.0 2.0 0.00 0.03 0.01 88 1011.1
20180422042928 62 218 0.0 2.0 0.00 0.03 0.01 88 1011.0
20180422042028 62 229 1.0 2.0 0.00 0.03 0.01 88 1011.1
20180422041128 62 240 1.0 2.0 0.00 0.03 0.01 87 1011.3
20180422040228 63 240 1.0 2.0 0.00 0.03 0.01 87 1011.5
20180422035328 63 240 1.0 3.0 0.00 0.03 0.01 86 1011.4
20180422034428 63 237 2.0 4.0 0.00 0.03 0.01 85 1011.5
20180422033528 63 120 2.0 4.0 0.00 0.03 0.01 84 1011.6
20180422032628 63 236 2.0 4.0 0.00 0.03 0.01 82 1011.1
20180422031728 64 189 1.0 5.0 0.00 0.03 0.01 80 1011.9
20180422030828 64 40 0.0 3.0 0.00 0.03 0.01 79 1011.7
20180422025928 64 41 2.0 4.0 0.00 0.03 0.01 78 1011.4
20180422025028 64 62 2.0 4.0 0.00 0.03 0.01 79 1011.3
20180422024128 64 353 1.0 4.0 0.00 0.03 0.01 79 1011.3
20180422023228 64 298 1.0 3.0 0.00 0.03 0.01 79 1011.9
20180422022328 64 347 2.0 4.0 0.00 0.03 0.01 78 1011.8
20180422021428 64 14 3.0 4.0 0.00 0.03 0.01 78 1011.3
20180422020528 64 12 3.0 7.0 0.00 0.03 0.01 78 1011.4
20180422015628 64 1 3.0 5.0 0.00 0.03 0.01 78 1011.7
20180422014728 64 2 3.0 7.0 0.00 0.03 0.01 78 1011.7
20180422013828 65 324 1.0 6.0 0.00 0.03 0.01 78 1011.8
20180422012928 65 314 1.0 3.0 0.00 0.03 0.01 77 1012.2
20180422012028 65 65 4.0 8.0 0.00 0.03 0.01 77 1012.3
20180422011128 65 46 6.0 10.0 0.00 0.03 0.01 77 1011.8
20180422010228 65 26 4.0 11.0 0.00 0.03 0.01 76 1012.2
20180422005328 65 2 2.0 6.0 0.00 0.03 0.01 75 1012.7
20180422004428 65 19 3.0 4.0 0.00 0.03 0.01 76 1013.2
20180422003528 65 39 7.0 12.0 0.00 0.03 0.01 76 1012.8
20180422002628 66 42 4.0 12.0 0.00 0.03 0.01 77 1011.8
20180422001728 66 53 2.0 7.0 0.00 0.03 0.01 77 1013.1
20180422000828 66 66 3.0 7.0 0.00 0.03 0.01 77 1013.2
20180421235928 66 63 2.0 6.0 0.00 0.03 0.01 78 1013.0
20180421235028 66 84 1.0 4.0 0.00 0.03 0.01 77 1013.3
20180421234128 66 66 2.0 4.0 0.00 0.03 0.01 78 1013.4
20180421233228 66 34 1.0 8.0 0.00 0.03 0.01 78 1012.9
20180421232328 66 148 1.0 1.0 0.00 0.03 0.01 80 1013.1
20180421231428 66 83 2.0 4.0 0.00 0.03 0.01 79 1013.4
20180421230528 66 46 3.0 7.0 0.00 0.03 0.01 79 1012.8
20180421225628 65 20 4.0 5.0 0.01 0.03 0.01 80 1012.6
20180421224728 66 3 5.0 10.0 0.01 0.03 0.01 80 1012.7
20180421223828 66 349 5.0 12.0 0.01 0.03 0.01 79 1012.7
20180421222928 66 18 6.0 11.0 0.01 0.03 0.01 79 1012.5
20180421222028 66 18 4.0 9.0 0.01 0.03 0.01 79 1012.7
20180421221128 66 344 4.0 9.0 0.01 0.03 0.01 79 1013.1
20180421220228 66 337 4.0 9.0 0.01 0.03 0.01 80 1012.8
20180421215328 66 327 4.0 8.0 0.00 0.02 0.02 81 1012.6
20180421214428 66 347 4.0 9.0 0.00 0.02 0.02 81 1012.7
20180421213528 66 336 4.0 10.0 0.00 0.02 0.02 80 1012.8
20180421212628 66 331 4.0 8.0 0.00 0.02 0.02 81 1012.9
20180421211728 66 325 4.0 9.0 0.00 0.02 0.02 81 1013.0
20180421210828 66 316 3.0 9.0 0.00 0.02 0.02 81 1012.9
20180421205928 67 269 3.0 7.0 0.00 0.02 0.02 80 1013.3
20180421205028 67 282 4.0 7.0 0.00 0.02 0.02 80 1013.1
20180421204128 67 324 4.0 10.0 0.00 0.02 0.02 79 1012.6
20180421203228 67 333 3.0 6.0 0.00 0.02 0.02 78 1012.5
20180421202328 68 319 3.0 6.0 0.00 0.02 0.02 77 1012.7
20180421201428 68 312 2.0 5.0 0.00 0.02 0.02 76 1012.6
20180421200528 68 315 3.0 6.0 0.00 0.02 0.02 75 1012.7
20180421195628 69 303 3.0 8.0 0.00 0.02 0.02 75 1012.3
20180421194728 70 266 3.0 9.0 0.00 0.02 0.02 73 1012.7
20180421193828 70 1 3.0 4.0 0.02 0.02 0.02 70 1011.6
20180421192928 70 42 3.0 5.0 0.02 0.02 0.02 69 1011.2
20180421192028 70 44 3.0 5.0 0.02 0.02 0.02 68 1011.0
20180421191128 70 34 4.0 7.0 0.02 0.02 0.02 67 1011.1
20180421190228 71 51 3.0 7.0 0.02 0.02 0.02 67 1011.0
20180421185328 71 64 3.0 7.0 0.02 0.02 0.02 66 1011.1
20180421184428 72 82 3.0 10.0 0.02 0.02 0.02 63 1011.7
20180421183528 73 86 3.0 8.0 0.00 0.01 0.01 58 1011.6
20180421182628 73 51 5.0 11.0 0.00 0.01 0.01 58 1011.1
20180421181728 73 47 5.0 11.0 0.00 0.01 0.01 57 1010.6
20180421180828 73 55 5.0 13.0 0.00 0.01 0.01 57 1011.0
20180421175928 73 50 5.0 8.0 0.00 0.01 0.01 56 1011.0
20180421175028 73 62 7.0 14.0 0.00 0.01 0.01 55 1010.7
20180421174128 74 63 5.0 13.0 0.00 0.01 0.01 54 1010.6
20180421173228 74 58 3.0 12.0 0.00 0.01 0.01 53 1010.8
20180421172328 74 81 2.0 6.0 0.00 0.01 0.01 52 1011.7
20180421171428 74 103 4.0 5.0 0.00 0.01 0.01 52 1011.2
20180421170528 74 61 6.0 11.0 0.00 0.01 0.01 52 1010.6
20180421165628 74 94 7.0 13.0 0.00 0.01 0.01 52 1010.5
20180421164728 74 81 7.0 12.0 0.00 0.01 0.01 51 1010.8
20180421163828 74 85 5.0 11.0 0.00 0.01 0.01 51 1011.1
20180421162928 74 78 4.0 10.0 0.00 0.01 0.01 51 1010.6
20180421162028 74 100 4.0 10.0 0.00 0.01 0.01 51 1010.6
20180421161128 74 74 4.0 8.0 0.00 0.01 0.01 50 1010.9
20180421160228 74 89 5.0 9.0 0.00 0.01 0.01 50 1010.6
20180421155328 74 133 5.0 9.0 0.00 0.01 0.01 50 1011.1
20180421154428 74 108 6.0 13.0 0.00 0.01 0.01 50 1011.0
20180421153528 74 98 4.0 12.0 0.00 0.01 0.01 49 1010.8
20180421152628 74 71 4.0 9.0 0.00 0.01 0.01 52 1011.0
20180421151728 74 67 4.0 9.0 0.00 0.01 0.01 54 1011.1
20180421150828 73 18 5.0 11.0 0.00 0.01 0.01 53 1011.0
20180421145928 73 31 7.0 11.0 0.00 0.01 0.01 54 1011.0
20180421145028 73 26 5.0 13.0 0.00 0.01 0.01 55 1011.1
20180421144128 72 338 5.0 9.0 0.01 0.01 0.01 60 1011.6